Погода в Передовике

Россия / Республика Марий Эл     55°56′06″N   48°17′41″E
темп.,
°C
ветер,
м/с
пор.,
м/с
влажн.,
%
обл.,
%
осадки,
мм/ч
давл.,
гПа
погр.,
м
16 апреля, пт
пт1600:00+10св51096100 0.0 1021374
03:00+9св51090100 0.0 1022476
06:00+8св61187100 0.0 1023526
09:00+9всв697898 0.0 1025578
12:00+11всв676678 0.0 1025851
15:00+14всв675731 0.0 10251123
18:00+11всв48637 0.0 1025344
21:00+7св411675 0.0 1026326
17 апреля, сб
сб1700:00+5св411695 0.0 1027286
03:00+3св410695 0.0 1028271
06:00+3св410675 0.0 1028313
09:00+8всв58434 0.0 1028676
12:00+11всв56341 0.0 10281184
15:00+12всв56350 0.0 10271387
18:00+10св35520 0.0 102696
21:00+5св38660 0.0 1027132
18 апреля, вс
вс1800:00+4св38740 0.0 1026137
03:00+2св23790 0.0 102633
06:00+3св27754 0.0 1026160
09:00+9всв4651100 0.0 1026722
12:00+12всв4543100 0.0 10251541
15:00+12всв5644100 0.0 10251747
18:00+8всв61065100 0.0 1026856
21:00+5всв51263100 0.0 1028722
19 апреля, пн
пн1900:00+4в6115089 0.0 1029673
03:00+1всв61257100 0.0 1031533
06:00+1в61358100 0.0 1032700
09:00+3в7104474 0.0 10331152
12:00+6в710332 0.0 10321661
15:00+7в79300 0.0 10321768
18:00+5в610370 0.0 1033910
21:00+2в512440 0.0 1034416
20 апреля, вт
вт2000:000в513480 0.0 1034415
03:00−1в512520 0.0 1034360
06:000в511500 0.0 1035435
09:00+5вюв710360 0.0 10341089
12:00+8вюв8102994 0.0 10341352
15:00+9вюв8112924 0.0 10321392
18:00+7вюв61237100 0.0 1031620
21:00+5вюв61544100 0.0 1031575